Location: Gorze? G�rny
(49.8500°N, 19.5000°E)
Time: 05:13:54
(UTC+00:00)

ALOS 2 - Pass Details

Date: 13 May 2021
Orbit: 630 x 632 km, 97.9° (Epoch: 20 June)

Event Time Altitude Azimuth Distance (km) Brightness Sun altitude
Exits shadow 21:45:39 46° 128° (SE) 851 2.9 -20.6°
Maximum altitude 21:46:43 63° 72° (ENE) 713 2.8 -20.6°
Drops below altitude 10° 21:51:04 10° 352° (N) 2,027 6.4 -20.7°
Sets 21:53:18 0° 349° (N) 2,939 7.6 -20.8°
